Regional Weather Roundup
Issued by NWS

Home | Current Version | Previous Version | Text Only | Print | Product List | Glossary On
Versions: 1 2 3 4 5 6 7 8 9 10 11 12 13 14 15 16 17 18 19 20 21 22 23 24 25 26 27 28 29 30 31 32 33 34 35 36 37 38 39 40 41 42 43 44 45 46 47 48 49 50
000
ASUS46 KSEW 291510
RWRWA

WASHINGTON REGIONAL WEATHER ROUNDUP
NATIONAL WEATHER SERVICE SEATTLE WA
800 AM PDT SAT AUG 29 2015

NOTE:"FAIR" INDICATES FEW OR NO CLOUDS BELOW 12,000 FEET WITH NO
SIGNIFICANT WEATHER AND/OR OBSTRUCTIONS TO VISIBILITY.

WAZ505-507>509-291600-
SEATTLE, TACOMA, EVERETT, AND VICINITY

CITY           SKY/WX    TMP DP  RH WIND       PRES   REMARKS
EVERETT        LGT RAIN  61  58  90 SE12G20   29.56F
BOEING FIELD   LGT RAIN  65  59  81 S8        29.56F
RENTON         LGT RAIN  63  61  93 VRB3      29.55F
SEATAC AIRPORT CLOUDY    63  59  87 S5        29.58F
JBLM-MCCHORD   CLOUDY    62  60  93 S12       29.58R
PUYALLUP       FAIR      63  63 100 CALM      29.60R
BREMERTON      CLOUDY    61  61 100 S8        29.60R
JBLM-FT LEWIS  CLOUDY    64  59  83 S13G23    29.57R
TACOMA NARROWS CLOUDY    63  58  83 S9        29.59R
$$

WAZ001-503-506-510-514-515-291600-
NORTH INTERIOR

CITY           SKY/WX    TMP DP  RH WIND       PRES   REMARKS
BELLINGHAM     LGT RAIN  62  59  90 SE15G24   29.53F
FRIDAY HARBOR  LGT RAIN  59  58  96 CALM      29.45F
EASTSOUND      LGT RAIN  61  59  94 SW5       29.43F
PORT ANGELES   CLOUDY    58  57  97 N5        29.44R FOG
PORT TOWNSEND  FAIR      63  61  94 SE16G29   29.46F
NAS WHIDBEY    LGT RAIN  61  59  93 E22G28    29.51F
ARLINGTON      CLOUDY    63  55  77 E16       29.56F
BURLINGTON     PTSUNNY   61  59  94 E15       29.53F
$$

WAZ020-022-039-040-504-511-512-291600-
SOUTHWEST INTERIOR

CITY           SKY/WX    TMP DP  RH WIND       PRES   REMARKS
SHELTON        CLOUDY    62  59  90 N3        29.54R
OLYMPIA        CLOUDY    63  58  83 S14G25    29.56R
CHEHALIS       MOSUNNY   64  61  88 S15G22    29.58R
KELSO          NOT AVBL
VANCOUVER      CLOUDY    66  58  75 S10G20    29.69R
SCAPPOOSE, OR  CLOUDY    65  55  70 S10G24    29.65R
PORTLAND, OR   LGT RAIN  66  62  87 S12       29.70R
$$

WAZ021-516-517-291600-
WASHINGTON COAST

CITY           SKY/WX    TMP DP  RH WIND       PRES   REMARKS
FORKS          PTSUNNY   62  59  90 S12G31    29.45F FOG
HOQUIAM        MOSUNNY   65  54  67 SE29G46   29.51F
ASTORIA, OR    PTSUNNY   66  53  63 S24G41    29.51F
$$

WAZ019-023-024-040-518-519-291600-
CASCADE MOUNTAINS AND COLUMBIA GORGE

CITY           SKY/WX    TMP DP  RH WIND       PRES   REMARKS
TROUTDALE, OR  CLOUDY    68  56  65 S18G35    29.71R
THE DALLES, OR LGT RAIN  67  60  78 NW7       29.63R
$$

WAZ026-027-041>044-520-521-291600-
EAST SLOPES

CITY           SKY/WX    TMP DP  RH WIND       PRES   REMARKS
OMAK           CLOUDY    67  48  50 E3        29.53F HAZE
WENATCHEE      CLOUDY    67  51  56 CALM      29.54S
ELLENSBURG     PTSUNNY   62  51  67 W9        29.60R
YAKIMA         CLOUDY    66  52  60 CALM      29.60R
$$

WAZ028-034-035-291600-
COLUMBIA BASIN

CITY           SKY/WX    TMP DP  RH WIND       PRES   REMARKS
EPHRATA        CLOUDY    71  48  43 N6        29.52S
MOSES LAKE     CLOUDY    68  48  48 CALM      29.53S
PASCO          CLOUDY    69  55  60 CALM      29.50S
HERMISTON, OR  PTSUNNY   67  52  58 W18       29.56R
$$

WAZ036>038-291600-
NORTHEAST WASHINGTON

CITY           SKY/WX    TMP DP  RH WIND       PRES   REMARKS
SPOKANE GEIGER CLOUDY    71  44  37 SE9       29.62F HAZE
SPOKANE FELTS  CLOUDY    71  47  42 CALM      29.62F HAZE
FAIRCHILD AFB  CLOUDY    67  45  46 NE5       29.62F
COEURDALENE,ID CLOUDY    66  46  48 NE12      29.65F
DEER PARK      CLOUDY    69  46  43 NW6       29.64S
$$

WAZ029>033-291600-
SOUTHEAST WASHINGTON

CITY           SKY/WX    TMP DP  RH WIND       PRES   REMARKS
PULLMAN        HAZE      72  43  35 E12G21    29.70R VSB 1/2
LEWISTON, ID   HAZE      74  45  35 CALM      29.63S VSB 1
WALLA WALLA    CLOUDY    79  44  28 S8        29.55R
PENDLETON, OR  PTSUNNY   81  39  22 S8        29.57R
$$


USA.gov is the U.S. government's official web portal to all federal, state and local government web resources and services.